OneWeb SL0119

operational
NORAD ID: 47278 Int'l Des: 2020-100 Owner: ONEWEB Country: UK Constellation: oneweb
LEOCIRCULARPOLARONEWEB_TYPE

OneWeb SL0119について

説明を読み込み中...

リアルタイム位置

3D地球を読み込み中...

次回通過

高度履歴

Altitude vs Time

uPlot chart will show altitude changes over time

軌道要素

1 47278U 20100W 25258.68585533 .00000059 00000-0 12767-3 0 9996
2 47278 87.8903 45.2151 0001676 88.3151 271.8170 13.12444314228576
Epoch: Sep 15, 2025 • Age: 16 hours

現在のステータス

高度 1216.6 km
速度 7.25 km/s
衛星直下点 0.66°N, 109.41°E
打ち上げ日 Dec 18, 2020
運用期間 4.7 years
タイプ internet

技術仕様

分類 Payload
質量 148.00 kg
乾燥質量 140.00 kg
総質量 148.00 kg
長さ 1.30 m
直径 1.00 m
スパン 5.00 m
形状 Trapezoid+2 pan
製造者 ONEWUS
バスタイプ ARROW
フェーズステータス In Orbit
所有者/国 ONEWEB/UK

大規模コンステレーション

Loading constellations...